COSMOS 2251 DEB

Satellite information

Favourite Embed

Satellite Type and Status

DEBRISIN ORBIT

Key statistics

Satellite COSMOS 2251 DEB at a glance.

Uptime

11868

Days in orbit

Revolutions

≈ 15.4

Per day

Orbit

LEO

Low Earth Orbit

Inclination

74.0

Latest

Satellite identification and parameters

Extended collection of information and parameters for COSMOS 2251 DEB.

Object identification

Identified? True

Debris? True

Object name: COSMOS 2251 DEB

International designator: 1993-036RW

Object number (NORAD): 34429

Object ID (CCSDS): 34429

Country: COMMONWEALTH OF INDEPENDENT STATES (CIS)

Current information (Y/N): Y

RCS size: SMALL

Orbital parameters

Period: 93.436 minutes

Inclination: 73.9701 deg

SMA: 6820.832 km

Apoapsis: 447.666 km

Periapsis: 437.728 km

RAAN: 169.7275 deg

Eccentricy: 0.0007285

Argument of periapsis: 11.6809 deg

Mean anomaly: 111.3693 deg

Mean motion: 15.41156412 rev/day

Mean motion (dot): 0.00239612 rev/day2

B* drag term: 0.0055962 1/REarth

Two-line elements (TLE)

Creation date: Dec. 12, 2025, 7:06 a.m.

Reference frame: TEME

Reference center: EARTH

Epoch: Dec. 11, 2025, 10:49 p.m. UTC

TLE line 0: 0 COSMOS 2251 DEB

TLE line 1: 1 34429U 93036RW 25345.95111273 .00239612 00000-0 55962-2 0 9993

TLE line 2: 2 34429 73.9701 169.7275 0007285 11.6809 111.3693 15.41156412894369

Live tracking on map

Real-time ground track for satellite COSMOS 2251 DEB.

In-orbit conjunctions

A list of the most updated potential collisions computed for object COSMOS 2251 DEB.

Target Orbit TCA Probability of collision Miss distance Type
DEMETER SSO 2024-09-09 21:21:54 0.001536862 108.0 (m) PAYLOAD

Associated space launch

Military communications satellite. Destroyed in a collision with Iridium 33.

COSMOS 2251 DEB was lifted into orbit during the mission ‘Kosmos-3M | Strela-2M 51’, on board a Kosmos-3M space rocket.

The launch took place on June 16, 1993, 4:17 a.m. from 132/1 (132L).

For more information about the launch, click the button.

Launch to space Kosmos-3M | Strela-2M 51
Kosmos-3M | Strela-2M 51

Agency: N/A

Status: Launch Successful

Launch date: June 16, 1993, 4:17 a.m. UTC

Rocket: Kosmos-3M

Launch pad: 132/1 (132L)

Location: Plesetsk Cosmodrome, Russian Federation

...

Latest news about this satellite

There are no fresh news available about this satellite. Check back as we update our databases every day.


Newsletter sign-up

Weekly statistics, charts and insights to help you stay on top of the space industry.